THORAD AGENA D DEB, 42518

Orbit data source: Space-Track

THORAD AGENA D DEB, 42518 is space debris in SSO originally from a launch on Wed, 08 Apr 1970 UTC launched from the Air Force Western Test Range (AFWTR). Debris objects in space refer to the collection of defunct objects orbiting the Earth. Examples of debris include non-operational satellites, rocket bodies, and fragments generated from explosions, collisions, or faulty payload assembly.

Loading next visibility...
Identifier
42518, 1970-025RY
Orbit
SSO
Country
Flag of USUS
Related business
Manufacturer
Unknown
Mission
Spacecraft
Bus & Motor
Unknown
Mass
Unknown
Launch date (UTC)
1970-04-08 (56 years ago)
Launch vehicle
Unknown
Launch site
Air Force Western Test Range (AFWTR)
Object type
Payload
Rocket body
Debris
Shape & HBR
Unknown shape, 0.1 m
Radar Cross Section
Small (<0.1 m²)

Expand to show TLE details & history
Last TLE update: 1 month ago

TLE from 1 month ago
0 THORAD AGENA D DEB
1 42518U 70025RY  26137.43232053  .00006477  00000-0  41950-2 0  9990
2 42518 100.4164 192.4974 0065502 212.9782 146.7286 14.02075827289024
Epoch: 2026-05-17T10:22Z
TLE epoch observation values (Epoch: 2026-05-17T10:22:32.493Z)
Latitude
0.00005°
Longitude
161.72699°
Altitude
929.332 km
Speed
7.367 km/s
True Right ascension
12h 49m 59s
True Declination
0° 00' 00"
Sunlit
Object was in full shadow at epoch
Visualization orbit readout
Latitude
Unknown
Longitude
Unknown
Altitude
Unknown
Speed
Unknown
Apparent Right ascension
Unknown
Apparent Declination
Unknown
Sunlit
N/A
Visualization observer readout
Local Sidereal Time
21:39:51
Azimuth
Unknown
Elevation
Unknown
Doppler factor
Unknown
Orbital elements
Apogee altitude
931.455 km
Perigee altitude
836.319 km
Semi-major axis
7,262.024 km
Eccentricity
0.00655
Inclination
100.4164°
RAAN
192.4974°
Arg. of periapsis
212.9782°
True anomaly
147.13758°
Mean anomaly
146.7286°
Eccentric anomaly
146.93337°
Mean motion
3.50717 °/min
Orbital period
102.65 mins
BSTAR
0.004195
Loading maneuver chart data...
Computing Atmospheric mass density...

Documentation

Showing up to 5 results
|